Tracking 22879 objects as of 21-Apr-2021
HD Live streaming from Space Station
objects crossing your sky now

DELTA 1 DEB

Track DELTA 1 DEB now!
10-day predictions


NORAD ID: 7085
Int'l Code: 1973-086CD
Perigee: 1,355.1 km
Apogee: 1,507.1 km
Inclination: 102.1 °
Period: 114.3 minutes
Semi major axis: 7802 km
RCS: 0.072 m2 (small)
Launch date: November 6, 1973
Source: United States (US)
Launch site: AIR FORCE WESTERN TEST RANGE (AFWTR)

Note: This is SATELLITE DEBRIS
aabbcc
Your satellite tracking list
Your tracking list is empty




NASA's NSSDC Master Catalog

Two Line Element Set (TLE):
1 07085U 73086CD  21111.20218316 -.00000059  00000-0 -62675-4 0  9999
2 07085 102.0678 187.6671 0097354 233.2664 193.4951 12.59754345178986
Source of the keplerian elements: AFSPC